www.pogodaiklimat.ru

Погода и климат >> Архив погоды >> Перу >> Pucallpa


ПОГОДА в Pucallpa

  • Прогноз погоды в Pucallpa
  • Монитор погоды в Pucallpa
  • Климат города

АРХИВ ПОГОДЫ в Pucallpa

Время (UTC), дата Ветер
(напр.,м/с)
 
Видим.   Явления Облачность Т
(С)
Тd
(С)
f
(%)
Тe
(С)
Тes
(С)
Комфортность P
(гПа)
Po
(гПа)
Тmin
(С)
Tmax
(С)
R
(мм)
R24
(мм)
S
(см)
21 18.06 ЮВ 4 10 км 10/5 540 м
[Cu med, cong Ac trans]
+26.4 +18.8 63 +31 +32 душно 1017.7 999.9
00 19.06 ЮВ 2 10 км 10/5 600 м
[Sc Ac trans]
+24.0 +19.7 77 +29 +29 душно 1018.7 1000.7 +26.8
03 19.06 В 2 10 км 5/5 540 м
[Sc]
+21.8 +19.2 85 +27 +27 душно 1020.0 1001.9
06 19.06 штиль 0 10 км 5/5 500 м
[Sc]
+21.0 +19.2 89 +25 +25 комфорт 1019.2 1001.0
09 19.06 штиль 0 10 км {дождь, метель} 10/8 450 м
[Sc Ac trans]
+20.4 +18.9 91 +24 +24 комфорт 1023.3 1000.5
12 19.06 штиль 0 10 км 10/5 600 м
[Cu med, cong Ac trans]
+18.9 +18.1 95 +20 +20 1019.5 1001.2 +18.4
15 19.06 ЮВ 3 10 км 5/5 600 м
[Cu med, cong]
+25.4 +19.3 69 +31 +36 очень
душно
1019.5 1001.6
18 19.06 ЮВ 3 10 км 5/5 600 м
[Cu med, cong]
+28.0 +18.7 57 +33 +39 очень
душно
1017.4 999.7
21 19.06 ЮВ 2 10 км 6/6 600 м
[Cu med, cong]
+28.6 +20.2 60 +35 +36 очень
душно
1014.8 997.2
00 20.06 СВ 2 10 км 4/4 600 м
[Cu med, cong]
+25.9 +20.3 71 +32 +32 очень
душно
1015.9 998.1 +29.6
03 20.06 штиль 0 9000 м дым 3/3 450 м
[Sc]
+22.0 +20.6 92 +28 +28 душно 1017.1 999.0
06 20.06 штиль 0 9000 м мгла {туман} 1/1 450 м
[Sc]
+20.8 +20.2 96 +25 +25 комфорт 1016.3 998.2
09 20.06 штиль 0 10 км {туман} 1/1 600 м
[Sc]
+20.4 +19.5 95 +24 +24 комфорт 1015.5 997.5
12 20.06 штиль 0 10 км {туман} 1/1 600 м
[Sc]
+20.2 +19.3 95 +24 +25 комфорт 1017.2 999.0 +18.6
15 20.06 ЮВ 2 10 км 3/3 600 м
[Cu med, cong]
+27.2 +20.2 66 +34 +42 очень
душно
1017.9 1000.1
18 20.06 нст 1 10 км 6/6 450 м
[Cu med, cong]
+29.8 +19.8 55 +36 +43 очень
душно
1015.8 998.2
21 20.06 СВ 3 10 км 3/3 600 м
[Cu med, cong]
+29.6 +19.9 56 +36 +38 очень
душно
1013.6 996.1
00 21.06 нст 1 10 км ясно +26.0 +20.3 71 +32 +32 очень
душно
1014.5 996.7 +30.4
03 21.06 нст 1 10 км 3/3 500 м
[Sc]
+23.4 +20.5 84 +31 +31 очень
душно
1013.8 997.8
06 21.06 штиль 0 10 км 3/3 500 м
[Sc]
+21.2 +20.3 95 +26 +26 душно 1015.9 997.7
09 21.06 штиль 0 10 км 3/3 450 м
[Sc]
+21.4 +20.2 93 +27 +27 душно 1015.7 997.5
12 21.06 штиль 0 10 км 4/4 500 м
[Sc]
+19.8 +19.5 98 +23 +23 комфорт 1016.8 998.6 +19.6
15 21.06 Ю 2 10 км ясно +27.3 +20.6 67 +34 +46 очень
душно
1017.8 1000.0
21 21.06 С 2 10 км 3/3 600 м
[Cu med, cong]
+30.4 +20.2 54 +37 +39 очень
душно
1012.8 995.3
00 22.06 штиль 0 10 км 3/3 600 м
[Sc]
+25.8 +18.8 65 +31 +31 очень
душно
1013.1 995.3 +31.2
03 22.06 штиль 0 9000 м дым 3/3 450 м
[Sc]
+22.4 +21.4 94 +29 +29 очень
душно
1014.6 996.6
06 22.06 штиль 0 10 км {туман} 1/1 600 м
[Sc]
+21.6 +20.7 95 +27 +27 душно 1014.3 996.3
09 22.06 штиль 0 10 км {туман} 1/1 600 м
[Sc]
+20.8 +19.9 95 +25 +25 комфорт 1014.2 996.1
12 22.06 штиль 0 9000 м дымка 4/4 450 м
[Sc]
+20.4 +19.8 96 +24 +25 комфорт 1016.1 997.9 +19.8
15 22.06 Ю 2 10 км 8/3 600 м
[Cu med, cong Ac trans]
+24.2 +21.4 84 +31 +35 очень
душно
1017.9 999.9
18 22.06 нст 1 10 км {туман} 6/6 600 м
[Cu med, cong]
+30.0 +20.7 57 +37 +44 очень
душно
1015.3 997.7
21 22.06 нст 1 10 км 3/3 600 м
[Cu hum]
+31.0 +20.3 53 +61 +63 опасность
перегрева
1012.0 994.6
00 23.06 нст 1 10 км 3/3 500 м
[Sc]
+26.4 +20.4 70 +33 +33 очень
душно
1011.5 993.8 +31.5
03 23.06 штиль 0 10 км 3/3 450 м
[Sc]
+22.2 +21.0 93 +29 +29 очень
душно
1013.2 995.2
06 23.06 штиль 0 10 км 3/3 450 м
[Sc]
+21.8 +20.6 93 +28 +28 душно 1013.5 995.5
09 23.06 штиль 0 10 км 3/3 450 м
[Sc]
+20.8 +20.0 95 +25 +25 комфорт 1012.5 994.5
12 23.06 штиль 0 10 км 3/3 450 м
[Sc]
+21.2 +20.4 95 +26 +27 душно 1014.1 996.0 +20.6
15 23.06 нст 1 10 км 1/1 600 м
[Sc]
+29.0 +22.4 68 +38 +51 опасность
солнечного
удара
1014.6 997.1
18 23.06 СЗ 2 10 км 6/6 600 м
[Cu med, cong]
+31.2 +21.8 57 +40 +45 очень
душно
1012.6 995.1
21 23.06 СЗ 2 10 км 6/6 750 м
[Cu med, cong]
+31.2 +20.8 54 +38 +40 очень
душно
1009.7 992.3
00 24.06 С 2 10 км 3/3 450 м
[Cu hum]
+26.8 +22.9 79 +36 +36 очень
душно
1010.4 992.7 +31.6
03 24.06 нст 1 10 км 1/1 450 м
[Sc]
+24.8 +23.1 90 +33 +33 очень
душно
1013.8 995.0
06 24.06 штиль 0 8000 м дым 1/1 450 м
[Sc]
+22.8 +22.2 96 +31 +31 очень
душно
1012.7 994.8
09 24.06 штиль 0 10 км {туман} 1/1 600 м
[Sc]
+22.0 +21.7 98 +29 +29 очень
душно
1012.5 994.5
12 24.06 штиль 0 10 км {туман} 3/3 750 м
[Sc]
+21.8 +21.2 96 +28 +29 душно 1014.2 996.2 +20.2
15 24.06 нст 1 10 км 3/3 750 м
[Sc]
+29.0 +23.0 70 +39 +48 очень
душно
1015.2 997.6
18 24.06 нст 1 10 км 10/8 450 м
[Sc As op]
+28.4 +22.3 70 +37 +38 очень
душно
1013.0 995.4 0.2
21 24.06 С 3 10 км {дождь} 10/8 600 м
[Sc As op]
+26.2 +23.8 87 +36 +36 очень
душно
1010.3 992.6
00 25.06 СВ 2 10 км {дождь} 10/5 600 м
[Sc As op]
+25.2 +23.6 91 +34 +34 очень
душно
1011.5 993.7 +30.4 2
06 25.06 штиль 0 10 км 10/4 600 м
[Sc As op]
+22.8 +22.5 98 +31 +31 очень
душно
1013.2 995.3
09 25.06 штиль 0 10 км 10/4 750 м
[Sc As op]
+22.8 +22.5 98 +31 +31 очень
душно
1012.4 994.5
12 25.06 штиль 0 8000 м дымка 10/8 360 м
[Sc As op]
+23.0 +22.7 98 +32 +32 очень
душно
1013.9 995.9 +22.4 2
15 25.06 нст 1 10 км {туман} 10/5 450 м
[Sc As op]
+28.6 +23.2 73 +39 +40 очень
душно
1015.7 998.1
18 25.06 нст 2 10 км 6/6 450 м
[Cu med, cong]
+30.6 +25.0 72 +44 +50 опасность
перегрева
1012.9 995.4

 

Местоположение метеостанции Pucallpa (Перу): широта -8.37 долгота -74.56 высота над уровнем моря 149 м.

В архиве по умолчанию представлена погода в Pucallpa за последнюю неделю. Архивные данные за месяц целиком и за предыдущие месяцы, начиная с января 2011 года, Вы можете получить, выбрав интересующий диапазон дат из раскрывающегося списка и нажав кнопку "Ввод!".


*Определитесь, кто Вы:
робот инопланетянин человек

Внимание! Время в таблицах - всемирное. Для получения местного времени необходимо прибавить поправку, которая в Pucallpa равна -5 ч.

Смотрите также архив погоды в соседних городах и на ближайших метеорологических станциях:

Погода в Tingo Maria (Перу) (188 км)
Погода в Porto Walter (Бразилия) (200 км)
Погода в Marechal Thaumaturgo (Бразилия) (205 км)
Погода в Cruzeiro do Sul (Бразилия) (225 км)
Погода в Huanuco (Перу) (246 км)
Погода в Juanjui (Перу) (272 км)
Погода в Tarapoto (Перу) (288 км)
Погода в Yurimaguas (Перу) (326 км)
Погода в Anta (Перу) (351 км)
Погода в Tarauaca (Бразилия) (419 км)

Пояснения к столбцам:

Ветер - указаны скорость ветра в м/с - средняя за 10 мин, порывы в срок и между сроками (в фигурных скобках) и направление, откуда дует ветер: С - северный, СВ - северо-восточный, В - восточный, ЮВ - юго-восточный, Ю - южный, ЮЗ - юго-западный, З - западный, СЗ - северо-западный.
Видимость - горизонтальная дальность видимости в метрах или километрах. При видимости от 1 до 10 км при отсутствии осадков обычно наблюдается дымка, при ухудшении видимости до 1 км и менее - туман. В сухую погоду видимость может ухудшаться дымом, пылью или мглою.
Явления - указаны атмосферные явления, наблюдавшиеся в срок или в последний час перед сроком; фигурными скобками обозначены явления, наблюдавшиеся между сроками (за 1-3 часа до срока); квадратными скобками обозначены град или гололедные отложения с указанием их диаметра в мм.
Облачность - указаны через наклонную черту общая и нижняя облачность в баллах и высота нижней границы облаков в метрах; квадратными скобками обозначены формы облаков: Ci - перистые, Cs - перисто-слоистые, Cc - перисто-кучевые, Ac - высококучевые, As - высокослоистые, Sc - слоисто-кучевые, Ns - слоисто-дождевые, Cu - кучевые, Cb - кучево-дождевые. Подробнее классификацию облаков см. в Атласе облаков (PDF).
T - Температура воздуха - температура, измеренная на высоте 2 м над землей.
Td - Температура точки росы - температура, при понижении до которой содержащийся в воздухе водяной пар достигнет насыщения.
f - Относительная влажность воздуха - влажноcть воздуха, измеренная на высоте 2 м над землей.
Te - Эффективная температура - температура, которую ощущает одетый по сезону человек в тени. Характеристика душности погоды. При расчете учитывается влияние влажности воздуха и скорости ветра на теплоощущения человека.
Tes - Эффективная температура на солнце - температура, которую ощущает человек, с поправкой на солнечный нагрев. Характеристика знойности погоды. Зависит от высоты солнца над горизонтом, облачности и скорости ветра. Ночью, в пасмурную погоду, а также при ветре 12 м/с и более поправка равна нулю.
P - Атмосферное давление - приведенное к уровню моря атмосферное давление.
Po - Атмосферное давление - измеренное на уровне метеостанции атмосферное давление.
Tmin - Минимальная температура - минимум температуры воздуха на высоте 2 м над землей.
Tmax - Максимальная температура - максимум температуры воздуха на высоте 2 м над землей.
R - Количество осадков - Количество выпавших осадков за период времени, мм. При наведении курсора мыши на число - период времени, за который выпало указанное количество осадков.
R24 - Количество осадков - Количество выпавших осадков за 24 часа, мм.
S - Снежный покров - Высота снежного покрова, см. При наведении курсора мыши на число - состояние снежного покрова и степень покрытия местности в баллах.